Year,Month,Day,Hour,Minute,Value (Times are PST for temperature in C)
2013,07,14,00,00,16.40
2013,07,14,00,01,16.40
2013,07,14,00,02,16.40
2013,07,14,00,03,16.40
2013,07,14,00,04,16.40
2013,07,14,00,05,16.40
2013,07,14,00,06,16.40
2013,07,14,00,07,16.40
2013,07,14,00,08,16.40
2013,07,14,00,09,16.40
2013,07,14,00,10,16.40
2013,07,14,00,11,16.30
2013,07,14,00,12,16.30
2013,07,14,00,13,16.30
2013,07,14,00,14,16.20
2013,07,14,00,15,16.20
2013,07,14,00,16,16.10
2013,07,14,00,17,16.10
2013,07,14,00,18,16.10
2013,07,14,00,19,16.10
2013,07,14,00,20,16.10
2013,07,14,00,21,16.10
2013,07,14,00,22,16.10
2013,07,14,00,23,15.90
2013,07,14,00,24,15.90
2013,07,14,00,25,15.90
2013,07,14,00,26,15.90
2013,07,14,00,27,15.90
2013,07,14,00,28,15.80
2013,07,14,00,29,15.80
2013,07,14,00,30,15.80
2013,07,14,00,31,15.80
2013,07,14,00,32,15.80
2013,07,14,00,33,15.80
2013,07,14,00,34,15.80
2013,07,14,00,35,15.80
2013,07,14,00,36,15.80
2013,07,14,00,37,15.80
2013,07,14,00,38,15.80
2013,07,14,00,39,15.80
2013,07,14,00,40,15.80
2013,07,14,00,41,15.70
2013,07,14,00,42,15.70
2013,07,14,00,43,15.70
2013,07,14,00,44,15.70
2013,07,14,00,45,15.60
2013,07,14,00,46,15.60
2013,07,14,00,47,15.60
2013,07,14,00,48,15.60
2013,07,14,00,49,15.60
2013,07,14,00,50,15.60
2013,07,14,00,51,15.60
2013,07,14,00,52,15.60
2013,07,14,00,53,15.60
2013,07,14,00,54,15.60
2013,07,14,00,55,15.60
2013,07,14,00,56,15.60
2013,07,14,00,57,15.60
2013,07,14,00,58,15.50
2013,07,14,00,59,15.50
2013,07,14,01,00,15.40
2013,07,14,01,01,15.30
2013,07,14,01,02,15.30
2013,07,14,01,03,15.20
2013,07,14,01,04,15.20
2013,07,14,01,05,15.10
2013,07,14,01,06,15.10
2013,07,14,01,07,15.00
2013,07,14,01,08,15.00
2013,07,14,01,09,14.90
2013,07,14,01,10,14.90
2013,07,14,01,11,14.80
2013,07,14,01,12,14.80
2013,07,14,01,13,14.80
2013,07,14,01,14,14.80
2013,07,14,01,15,14.70
2013,07,14,01,16,14.70
2013,07,14,01,17,14.60
2013,07,14,01,18,14.60
2013,07,14,01,19,14.60
2013,07,14,01,20,14.50
2013,07,14,01,21,14.50
2013,07,14,01,22,14.50
2013,07,14,01,23,14.40
2013,07,14,01,24,14.40
2013,07,14,01,25,14.40
2013,07,14,01,26,14.40
2013,07,14,01,27,14.50
2013,07,14,01,28,14.50
2013,07,14,01,29,14.50
2013,07,14,01,30,14.50
2013,07,14,01,31,14.50
2013,07,14,01,32,14.50
2013,07,14,01,33,14.50
2013,07,14,01,34,14.50
2013,07,14,01,35,14.40
2013,07,14,01,36,14.40
2013,07,14,01,37,14.40
2013,07,14,01,38,14.30
2013,07,14,01,39,14.30
2013,07,14,01,40,14.30
2013,07,14,01,41,14.20
2013,07,14,01,42,14.20
2013,07,14,01,43,14.20
2013,07,14,01,44,14.20
2013,07,14,01,45,14.20
2013,07,14,01,46,14.10
2013,07,14,01,47,14.10
2013,07,14,01,48,14.10
2013,07,14,01,49,14.00
2013,07,14,01,50,14.00
2013,07,14,01,51,14.00
2013,07,14,01,52,14.00
2013,07,14,01,53,13.90
2013,07,14,01,54,13.90
2013,07,14,01,55,13.90
2013,07,14,01,56,13.80
2013,07,14,01,57,13.80
2013,07,14,01,58,13.80
2013,07,14,01,59,13.70
2013,07,14,02,00,13.70
2013,07,14,02,01,13.70
2013,07,14,02,02,13.70
2013,07,14,02,03,13.70
2013,07,14,02,04,13.70
2013,07,14,02,05,13.70
2013,07,14,02,06,13.70
2013,07,14,02,07,13.70
2013,07,14,02,08,13.70
2013,07,14,02,09,13.60
2013,07,14,02,10,13.60
2013,07,14,02,11,13.60
2013,07,14,02,12,13.60
2013,07,14,02,13,13.50
2013,07,14,02,14,13.50
2013,07,14,02,15,13.50
2013,07,14,02,16,13.50
2013,07,14,02,17,13.50
2013,07,14,02,18,13.50
2013,07,14,02,19,13.50
2013,07,14,02,20,13.50
2013,07,14,02,21,13.50
2013,07,14,02,22,13.50
2013,07,14,02,23,13.50
2013,07,14,02,24,13.50
2013,07,14,02,25,13.50
2013,07,14,02,26,13.50
2013,07,14,02,27,13.50
2013,07,14,02,28,13.50
2013,07,14,02,29,13.50
2013,07,14,02,30,13.50
2013,07,14,02,31,13.50
2013,07,14,02,32,13.50
2013,07,14,02,33,13.50
2013,07,14,02,34,13.50
2013,07,14,02,35,13.50
2013,07,14,02,36,13.50
2013,07,14,02,37,13.50
2013,07,14,02,38,13.50
2013,07,14,02,39,13.50
2013,07,14,02,40,13.50
2013,07,14,02,41,13.50
2013,07,14,02,42,13.50
2013,07,14,02,43,13.40
2013,07,14,02,44,13.40
2013,07,14,02,45,13.40
2013,07,14,02,46,13.40
2013,07,14,02,47,13.30
2013,07,14,02,48,13.30
2013,07,14,02,49,13.30
2013,07,14,02,50,13.30
2013,07,14,02,51,13.30
2013,07,14,02,52,13.30
2013,07,14,02,53,13.30
2013,07,14,02,54,13.30
2013,07,14,02,55,13.30
2013,07,14,02,56,13.30
2013,07,14,02,57,13.30
2013,07,14,02,58,13.30
2013,07,14,02,59,13.40
2013,07,14,03,00,13.40
2013,07,14,03,01,13.30
2013,07,14,03,02,13.30
2013,07,14,03,03,13.40
2013,07,14,03,04,13.40
2013,07,14,03,05,13.40
2013,07,14,03,06,13.50
2013,07,14,03,07,13.60
2013,07,14,03,08,13.60
2013,07,14,03,09,13.60
2013,07,14,03,10,13.70
2013,07,14,03,11,13.70
2013,07,14,03,12,13.70
2013,07,14,03,13,13.70
2013,07,14,03,14,13.70
2013,07,14,03,15,13.70
2013,07,14,03,16,13.70
2013,07,14,03,17,13.70
2013,07,14,03,18,13.70
2013,07,14,03,19,13.70
2013,07,14,03,20,13.70
2013,07,14,03,21,13.70
2013,07,14,03,22,13.70
2013,07,14,03,23,13.70
2013,07,14,03,24,13.70
2013,07,14,03,25,13.70
2013,07,14,03,26,13.70
2013,07,14,03,27,13.70
2013,07,14,03,28,13.70
2013,07,14,03,29,13.70
2013,07,14,03,30,13.70
2013,07,14,03,31,13.70
2013,07,14,03,32,13.80
2013,07,14,03,33,13.80
2013,07,14,03,34,13.80
2013,07,14,03,35,13.90
2013,07,14,03,36,13.90
2013,07,14,03,37,13.80
2013,07,14,03,38,13.80
2013,07,14,03,39,13.80
2013,07,14,03,40,13.80
2013,07,14,03,41,13.80
2013,07,14,03,42,13.80
2013,07,14,03,43,13.70
2013,07,14,03,44,13.70
2013,07,14,03,45,13.70
2013,07,14,03,46,13.70
2013,07,14,03,47,13.60
2013,07,14,03,48,13.60
2013,07,14,03,49,13.60
2013,07,14,03,50,13.60
2013,07,14,03,51,13.60
2013,07,14,03,52,13.60
2013,07,14,03,53,13.60
2013,07,14,03,54,13.60
2013,07,14,03,55,13.60
2013,07,14,03,56,13.60
2013,07,14,03,57,13.60
2013,07,14,03,58,13.60
2013,07,14,03,59,13.70
2013,07,14,04,00,13.70
2013,07,14,04,01,13.70
2013,07,14,04,02,13.70
2013,07,14,04,03,13.70
2013,07,14,04,04,13.60
2013,07,14,04,05,13.60
2013,07,14,04,06,13.60
2013,07,14,04,07,13.60
2013,07,14,04,08,13.50
2013,07,14,04,09,13.50
2013,07,14,04,10,13.50
2013,07,14,04,11,13.50
2013,07,14,04,12,13.50
2013,07,14,04,13,13.50
2013,07,14,04,14,13.50
2013,07,14,04,15,13.40
2013,07,14,04,16,13.40
2013,07,14,04,17,13.40
2013,07,14,04,18,13.40
2013,07,14,04,19,13.40
2013,07,14,04,20,13.40
2013,07,14,04,21,13.40
2013,07,14,04,22,13.40
2013,07,14,04,23,13.40
2013,07,14,04,24,13.40
2013,07,14,04,25,13.40
2013,07,14,04,26,13.40
2013,07,14,04,27,13.40
2013,07,14,04,28,13.30
2013,07,14,04,29,13.30
2013,07,14,04,30,13.30
2013,07,14,04,31,13.30
2013,07,14,04,32,13.20
2013,07,14,04,33,13.20
2013,07,14,04,34,13.10
2013,07,14,04,35,13.10
2013,07,14,04,36,13.10
2013,07,14,04,37,13.00
2013,07,14,04,38,13.00
2013,07,14,04,39,13.00
2013,07,14,04,40,12.90
2013,07,14,04,41,12.90
2013,07,14,04,42,12.90
2013,07,14,04,43,12.80
2013,07,14,04,44,12.80
2013,07,14,04,45,12.80
2013,07,14,04,46,12.80
2013,07,14,04,47,12.80
2013,07,14,04,48,12.80
2013,07,14,04,49,12.80
2013,07,14,04,50,12.70
2013,07,14,04,51,12.70
2013,07,14,04,52,12.60
2013,07,14,04,53,12.60
2013,07,14,04,54,12.60
2013,07,14,04,55,12.50
2013,07,14,04,56,12.50
2013,07,14,04,57,12.40
2013,07,14,04,58,12.40
2013,07,14,04,59,12.30
2013,07,14,05,00,12.30
2013,07,14,05,01,12.30
2013,07,14,05,02,12.30
2013,07,14,05,03,12.30
2013,07,14,05,04,12.40
2013,07,14,05,05,12.40
2013,07,14,05,06,12.50
2013,07,14,05,07,12.50
2013,07,14,05,08,12.50
2013,07,14,05,09,12.60
2013,07,14,05,10,12.60
2013,07,14,05,11,12.60
2013,07,14,05,12,12.60
2013,07,14,05,13,12.50
2013,07,14,05,14,12.50
2013,07,14,05,15,12.50
2013,07,14,05,16,12.50
2013,07,14,05,17,12.40
2013,07,14,05,18,12.40
2013,07,14,05,19,12.40
2013,07,14,05,20,12.40
2013,07,14,05,21,12.30
2013,07,14,05,22,12.30
2013,07,14,05,23,12.30
2013,07,14,05,24,12.30
2013,07,14,05,25,12.30
2013,07,14,05,26,12.20
2013,07,14,05,27,12.20
2013,07,14,05,28,12.10
2013,07,14,05,29,12.10
2013,07,14,05,30,12.00
2013,07,14,05,31,12.00
2013,07,14,05,32,12.00
2013,07,14,05,33,11.90
2013,07,14,05,34,11.90
2013,07,14,05,35,11.90
2013,07,14,05,36,11.90
2013,07,14,05,37,11.90
2013,07,14,05,38,11.90
2013,07,14,05,39,11.90
2013,07,14,05,40,11.90
2013,07,14,05,41,11.90
2013,07,14,05,42,11.90
2013,07,14,05,43,11.90
2013,07,14,05,44,11.90
2013,07,14,05,45,12.00
2013,07,14,05,46,12.00
2013,07,14,05,47,12.00
2013,07,14,05,48,12.00
2013,07,14,05,49,12.00
2013,07,14,05,50,12.00
2013,07,14,05,51,12.00
2013,07,14,05,52,12.10
2013,07,14,05,53,12.10
2013,07,14,05,54,12.10
2013,07,14,05,55,12.10
2013,07,14,05,56,12.20
2013,07,14,05,57,12.20
2013,07,14,05,58,12.20
2013,07,14,05,59,12.20
2013,07,14,06,00,12.30
2013,07,14,06,01,12.30
2013,07,14,06,02,12.30
2013,07,14,06,03,12.30
2013,07,14,06,04,12.30
2013,07,14,06,05,12.30
2013,07,14,06,06,12.30
2013,07,14,06,07,12.40
2013,07,14,06,08,12.40
2013,07,14,06,09,12.40
2013,07,14,06,10,12.50
2013,07,14,06,11,12.50
2013,07,14,06,12,12.50
2013,07,14,06,13,12.50
2013,07,14,06,14,12.50
2013,07,14,06,15,12.60
2013,07,14,06,16,12.60
2013,07,14,06,17,12.70
2013,07,14,06,18,12.70
2013,07,14,06,19,12.80
2013,07,14,06,20,12.80
2013,07,14,06,21,12.80
2013,07,14,06,22,12.80
2013,07,14,06,23,12.90
2013,07,14,06,24,12.90
2013,07,14,06,25,12.90
2013,07,14,06,26,13.00
2013,07,14,06,27,13.00
2013,07,14,06,28,13.00
2013,07,14,06,29,13.00
2013,07,14,06,30,13.00
2013,07,14,06,31,13.10
2013,07,14,06,32,13.10
2013,07,14,06,33,13.10
2013,07,14,06,34,13.10
2013,07,14,06,35,13.10
2013,07,14,06,36,13.10
2013,07,14,06,37,13.20
2013,07,14,06,38,13.20
2013,07,14,06,39,13.20
2013,07,14,06,40,13.20
2013,07,14,06,41,13.30
2013,07,14,06,42,13.30
2013,07,14,06,43,13.30
2013,07,14,06,44,13.30
2013,07,14,06,45,13.40
2013,07,14,06,46,13.40
2013,07,14,06,47,13.50
2013,07,14,06,48,13.50
2013,07,14,06,49,13.50
2013,07,14,06,50,13.60
2013,07,14,06,51,13.70
2013,07,14,06,52,13.70
2013,07,14,06,53,13.70
2013,07,14,06,54,13.80
2013,07,14,06,55,13.90
2013,07,14,06,56,13.90
2013,07,14,06,57,14.00
2013,07,14,06,58,14.10
2013,07,14,06,59,14.10
2013,07,14,07,00,14.20
2013,07,14,07,01,14.20
2013,07,14,07,02,14.30
2013,07,14,07,03,14.40
2013,07,14,07,04,14.50
2013,07,14,07,05,14.60
2013,07,14,07,06,14.80
2013,07,14,07,07,15.00
2013,07,14,07,08,15.20
2013,07,14,07,09,15.30
2013,07,14,07,10,15.50
2013,07,14,07,11,15.60
2013,07,14,07,12,15.80
2013,07,14,07,13,15.80
2013,07,14,07,14,15.90
2013,07,14,07,15,15.90
2013,07,14,07,16,16.10
2013,07,14,07,17,16.10
2013,07,14,07,18,16.10
2013,07,14,07,19,16.10
2013,07,14,07,20,16.20
2013,07,14,07,21,16.30
2013,07,14,07,22,16.40
2013,07,14,07,23,16.50
2013,07,14,07,24,16.60
2013,07,14,07,25,16.70
2013,07,14,07,26,16.80
2013,07,14,07,27,16.90
2013,07,14,07,28,16.90
2013,07,14,07,29,17.00
2013,07,14,07,30,17.10
2013,07,14,07,31,17.20
2013,07,14,07,32,17.30
2013,07,14,07,33,17.30
2013,07,14,07,34,17.40
2013,07,14,07,35,17.50
2013,07,14,07,36,17.60
2013,07,14,07,37,17.70
2013,07,14,07,38,17.80
2013,07,14,07,39,17.80
2013,07,14,07,40,17.70
2013,07,14,07,41,17.60
2013,07,14,07,42,17.50
2013,07,14,07,43,17.50
2013,07,14,07,44,17.50
2013,07,14,07,45,17.40
2013,07,14,07,46,17.30
2013,07,14,07,47,17.20
2013,07,14,07,48,17.20
2013,07,14,07,49,17.20
2013,07,14,07,50,17.10
2013,07,14,07,51,17.00
2013,07,14,07,52,17.00
2013,07,14,07,53,16.90
2013,07,14,07,54,16.90
2013,07,14,07,55,16.90
2013,07,14,07,56,16.90
2013,07,14,07,57,16.90
2013,07,14,07,58,16.90
2013,07,14,07,59,16.90
2013,07,14,08,00,16.80
2013,07,14,08,01,16.80
2013,07,14,08,02,16.70
2013,07,14,08,03,16.70
2013,07,14,08,04,16.70
2013,07,14,08,05,16.70
2013,07,14,08,06,16.70
2013,07,14,08,07,16.70
2013,07,14,08,08,16.70
2013,07,14,08,09,16.70
2013,07,14,08,10,16.70
2013,07,14,08,11,16.70
2013,07,14,08,12,16.70
2013,07,14,08,13,16.70
2013,07,14,08,14,16.70
2013,07,14,08,15,16.80
2013,07,14,08,16,16.80
2013,07,14,08,17,16.90
2013,07,14,08,18,16.90
2013,07,14,08,19,17.00
2013,07,14,08,20,17.00
2013,07,14,08,21,17.10
2013,07,14,08,22,17.30
2013,07,14,08,23,17.30
2013,07,14,08,24,17.50
2013,07,14,08,25,17.50
2013,07,14,08,26,17.60
2013,07,14,08,27,17.70
2013,07,14,08,28,17.70
2013,07,14,08,29,17.80
2013,07,14,08,30,17.90
2013,07,14,08,31,17.90
2013,07,14,08,32,18.00
2013,07,14,08,33,18.10
2013,07,14,08,34,18.10
2013,07,14,08,35,18.10
2013,07,14,08,36,18.10
2013,07,14,08,37,18.10
2013,07,14,08,38,18.00
2013,07,14,08,39,17.90
2013,07,14,08,40,17.90
2013,07,14,08,41,17.90
2013,07,14,08,42,17.90
2013,07,14,08,43,17.90
2013,07,14,08,44,17.80
2013,07,14,08,45,17.80
2013,07,14,08,46,17.80
2013,07,14,08,47,17.80
2013,07,14,08,48,17.80
2013,07,14,08,49,17.80
2013,07,14,08,50,17.90
2013,07,14,08,51,17.90
2013,07,14,08,52,17.90
2013,07,14,08,53,17.90
2013,07,14,08,54,17.90
2013,07,14,08,55,17.90
2013,07,14,08,56,17.90
2013,07,14,08,57,17.80
2013,07,14,08,58,17.70
2013,07,14,08,59,17.70
2013,07,14,09,00,17.70
2013,07,14,09,01,17.60
2013,07,14,09,02,17.60
2013,07,14,09,03,17.60
2013,07,14,09,04,17.60
2013,07,14,09,05,17.50
2013,07,14,09,06,17.50
2013,07,14,09,07,17.50
2013,07,14,09,08,17.60
2013,07,14,09,09,17.60
2013,07,14,09,10,17.60
2013,07,14,09,11,17.50
2013,07,14,09,12,17.40
2013,07,14,09,13,17.40
2013,07,14,09,14,17.30
2013,07,14,09,15,17.20
2013,07,14,09,16,17.00
2013,07,14,09,17,16.90
2013,07,14,09,18,16.80
2013,07,14,09,19,16.70
2013,07,14,09,20,16.70
2013,07,14,09,21,16.60
2013,07,14,09,22,16.40
2013,07,14,09,23,16.30
2013,07,14,09,24,16.30
2013,07,14,09,25,16.20
2013,07,14,09,26,16.20
2013,07,14,09,27,16.10
2013,07,14,09,28,16.10
2013,07,14,09,29,16.20
2013,07,14,09,30,16.30
2013,07,14,09,31,16.30
2013,07,14,09,32,16.30
2013,07,14,09,33,16.20
2013,07,14,09,34,16.30
2013,07,14,09,35,16.30
2013,07,14,09,36,16.30
2013,07,14,09,37,16.30
2013,07,14,09,38,16.40
2013,07,14,09,39,16.30
2013,07,14,09,40,16.40
2013,07,14,09,41,16.40
2013,07,14,09,42,16.30
2013,07,14,09,43,16.30
2013,07,14,09,44,16.40
2013,07,14,09,45,16.40
2013,07,14,09,46,16.50
2013,07,14,09,47,16.60
2013,07,14,09,48,16.60
2013,07,14,09,49,16.60
2013,07,14,09,50,16.60
2013,07,14,09,51,16.70
2013,07,14,09,52,16.70
2013,07,14,09,53,16.70
2013,07,14,09,54,16.70
2013,07,14,09,55,16.70
2013,07,14,09,56,16.70
2013,07,14,09,57,16.70
2013,07,14,09,58,16.80
2013,07,14,09,59,17.00
2013,07,14,10,00,17.00
2013,07,14,10,01,17.10
2013,07,14,10,02,17.10
2013,07,14,10,03,17.20
2013,07,14,10,04,17.30
2013,07,14,10,05,17.30
2013,07,14,10,06,17.30
2013,07,14,10,07,17.50
2013,07,14,10,08,17.50
2013,07,14,10,09,17.50
2013,07,14,10,10,17.50
2013,07,14,10,11,17.60
2013,07,14,10,12,17.50
2013,07,14,10,13,17.60
2013,07,14,10,14,17.50
2013,07,14,10,15,17.50
2013,07,14,10,16,17.40
2013,07,14,10,17,17.40
2013,07,14,10,18,17.40
2013,07,14,10,19,17.30
2013,07,14,10,20,17.30
2013,07,14,10,21,17.30
2013,07,14,10,22,17.30
2013,07,14,10,23,17.40
2013,07,14,10,24,17.60
2013,07,14,10,25,17.70
2013,07,14,10,26,17.80
2013,07,14,10,27,17.90
2013,07,14,10,28,17.90
2013,07,14,10,29,18.10
2013,07,14,10,30,18.20
2013,07,14,10,31,18.20
2013,07,14,10,32,18.20
2013,07,14,10,33,18.30
2013,07,14,10,34,18.30
2013,07,14,10,35,18.30
2013,07,14,10,36,18.40
2013,07,14,10,37,18.30
2013,07,14,10,38,18.40
2013,07,14,10,39,18.40
2013,07,14,10,40,18.50
2013,07,14,10,41,18.50
2013,07,14,10,42,18.50
2013,07,14,10,43,18.50
2013,07,14,10,44,18.50
2013,07,14,10,45,18.60
2013,07,14,10,46,18.60
2013,07,14,10,47,18.50
2013,07,14,10,48,18.50
2013,07,14,10,49,18.50
2013,07,14,10,50,18.50
2013,07,14,10,51,18.50
2013,07,14,10,52,18.40
2013,07,14,10,53,18.30
2013,07,14,10,54,18.20
2013,07,14,10,55,18.10
2013,07,14,10,56,18.10
2013,07,14,10,57,17.90
2013,07,14,10,58,17.90
2013,07,14,10,59,18.00
2013,07,14,11,00,18.10
2013,07,14,11,01,18.20
2013,07,14,11,02,18.20
2013,07,14,11,03,18.20
2013,07,14,11,04,18.20
2013,07,14,11,05,18.20
2013,07,14,11,06,18.40
2013,07,14,11,07,18.40
2013,07,14,11,08,18.50
2013,07,14,11,09,18.50
2013,07,14,11,10,18.40
2013,07,14,11,11,18.30
2013,07,14,11,12,18.20
2013,07,14,11,13,18.10
2013,07,14,11,14,18.00
2013,07,14,11,15,17.90
2013,07,14,11,16,18.00
2013,07,14,11,17,18.10
2013,07,14,11,18,18.10
2013,07,14,11,19,17.90
2013,07,14,11,20,17.90
2013,07,14,11,21,17.80
2013,07,14,11,22,17.90
2013,07,14,11,23,17.90
2013,07,14,11,24,17.90
2013,07,14,11,25,17.90
2013,07,14,11,26,17.90
2013,07,14,11,27,17.90
2013,07,14,11,28,17.90
2013,07,14,11,29,17.80
2013,07,14,11,30,17.80
2013,07,14,11,31,17.80
2013,07,14,11,32,17.90
2013,07,14,11,33,17.90
2013,07,14,11,34,17.90
2013,07,14,11,35,17.80
2013,07,14,11,36,17.80
2013,07,14,11,37,17.80
2013,07,14,11,38,17.80
2013,07,14,11,39,17.80
2013,07,14,11,40,17.80
2013,07,14,11,41,17.90
2013,07,14,11,42,17.90
2013,07,14,11,43,18.00
2013,07,14,11,44,18.20
2013,07,14,11,45,18.30
2013,07,14,11,46,18.40
2013,07,14,11,47,18.50
2013,07,14,11,48,18.50
2013,07,14,11,49,18.50
2013,07,14,11,50,18.60
2013,07,14,11,51,18.60
2013,07,14,11,52,18.60
2013,07,14,11,53,18.70
2013,07,14,11,54,18.90
2013,07,14,11,55,18.90
2013,07,14,11,56,19.10
2013,07,14,11,57,19.10
2013,07,14,11,58,18.90
2013,07,14,11,59,18.90
2013,07,14,12,00,18.90
2013,07,14,12,01,18.80
2013,07,14,12,02,18.80
2013,07,14,12,03,18.80
2013,07,14,12,04,18.80
2013,07,14,12,05,18.70
2013,07,14,12,06,18.60
2013,07,14,12,07,18.50
2013,07,14,12,08,18.50
2013,07,14,12,09,18.50
2013,07,14,12,10,18.50
2013,07,14,12,11,18.60
2013,07,14,12,12,18.60
2013,07,14,12,13,18.60
2013,07,14,12,14,18.60
2013,07,14,12,15,18.60
2013,07,14,12,16,18.60
2013,07,14,12,17,18.60
2013,07,14,12,18,18.60
2013,07,14,12,19,18.60
2013,07,14,12,20,18.70
2013,07,14,12,21,18.70
2013,07,14,12,22,18.80
2013,07,14,12,23,18.90
2013,07,14,12,24,18.90
2013,07,14,12,25,19.00
2013,07,14,12,26,18.90
2013,07,14,12,27,19.00
2013,07,14,12,28,19.10
2013,07,14,12,29,19.10
2013,07,14,12,30,19.10
2013,07,14,12,31,19.00
2013,07,14,12,32,18.90
2013,07,14,12,33,18.90
2013,07,14,12,34,18.90
2013,07,14,12,35,19.00
2013,07,14,12,36,18.90
2013,07,14,12,37,18.90
2013,07,14,12,38,18.80
2013,07,14,12,39,18.80
2013,07,14,12,40,18.70
2013,07,14,12,41,18.50
2013,07,14,12,42,18.40
2013,07,14,12,43,18.30
2013,07,14,12,44,18.20
2013,07,14,12,45,18.20
2013,07,14,12,46,18.10
2013,07,14,12,47,18.00
2013,07,14,12,48,17.90
2013,07,14,12,49,17.70
2013,07,14,12,50,17.60
2013,07,14,12,51,17.50
2013,07,14,12,52,17.40
2013,07,14,12,53,17.40
2013,07,14,12,54,17.50
2013,07,14,12,55,17.50
2013,07,14,12,56,17.60
2013,07,14,12,57,17.50
2013,07,14,12,58,17.40
2013,07,14,12,59,17.30
2013,07,14,13,00,17.40
2013,07,14,13,01,17.50
2013,07,14,13,02,17.40
2013,07,14,13,03,17.30
2013,07,14,13,04,17.30
2013,07,14,13,05,17.40
2013,07,14,13,06,17.40
2013,07,14,13,07,17.40
2013,07,14,13,08,17.40
2013,07,14,13,09,17.40
2013,07,14,13,10,17.40
2013,07,14,13,11,17.50
2013,07,14,13,12,17.60
2013,07,14,13,13,17.70
2013,07,14,13,14,17.80
2013,07,14,13,15,17.90
2013,07,14,13,16,17.90
2013,07,14,13,17,18.00
2013,07,14,13,18,18.10
2013,07,14,13,19,18.10
2013,07,14,13,20,18.20
2013,07,14,13,21,18.20
2013,07,14,13,22,18.20
2013,07,14,13,23,18.20
2013,07,14,13,24,18.10
2013,07,14,13,25,17.90
2013,07,14,13,26,17.60
2013,07,14,13,27,17.40
2013,07,14,13,28,17.30
2013,07,14,13,29,17.30
2013,07,14,13,30,17.30
2013,07,14,13,31,17.30
2013,07,14,13,32,17.30
2013,07,14,13,33,17.30
2013,07,14,13,34,17.30
2013,07,14,13,35,17.30
2013,07,14,13,36,17.40
2013,07,14,13,37,17.40
2013,07,14,13,38,17.50
2013,07,14,13,39,17.50
2013,07,14,13,40,17.50
2013,07,14,13,41,17.50
2013,07,14,13,42,17.50
2013,07,14,13,43,17.50
2013,07,14,13,44,17.40
2013,07,14,13,45,17.30
2013,07,14,13,46,17.30
2013,07,14,13,47,17.30
2013,07,14,13,48,17.30
2013,07,14,13,49,17.30
2013,07,14,13,50,17.10
2013,07,14,13,51,17.00
2013,07,14,13,52,16.90
2013,07,14,13,53,16.80
2013,07,14,13,54,16.50
2013,07,14,13,55,16.30
2013,07,14,13,56,16.00
2013,07,14,13,57,15.80
2013,07,14,13,58,15.60
2013,07,14,13,59,15.50
2013,07,14,14,00,15.30
2013,07,14,14,01,15.20
2013,07,14,14,02,15.10
2013,07,14,14,03,15.10
2013,07,14,14,04,15.00
2013,07,14,14,05,15.00
2013,07,14,14,06,14.90
2013,07,14,14,07,14.90
2013,07,14,14,08,14.90
2013,07,14,14,09,14.90
2013,07,14,14,10,14.80
2013,07,14,14,11,14.70
2013,07,14,14,12,14.70
2013,07,14,14,13,14.60
2013,07,14,14,14,14.50
2013,07,14,14,15,14.40
2013,07,14,14,16,14.20
2013,07,14,14,17,14.20
2013,07,14,14,18,14.20
2013,07,14,14,19,14.20
2013,07,14,14,20,14.20
2013,07,14,14,21,14.10
2013,07,14,14,22,14.10
2013,07,14,14,23,14.00
2013,07,14,14,24,13.90
2013,07,14,14,25,13.80
2013,07,14,14,26,13.70
2013,07,14,14,27,13.70
2013,07,14,14,28,13.70
2013,07,14,14,29,13.70
2013,07,14,14,30,13.80
2013,07,14,14,31,13.80
2013,07,14,14,32,13.80
2013,07,14,14,33,13.80
2013,07,14,14,34,13.80
2013,07,14,14,35,13.70
2013,07,14,14,36,13.60
2013,07,14,14,37,13.60
2013,07,14,14,38,13.50
2013,07,14,14,39,13.40
2013,07,14,14,40,13.40
2013,07,14,14,41,13.50
2013,07,14,14,42,13.40
2013,07,14,14,43,13.40
2013,07,14,14,44,13.50
2013,07,14,14,45,13.50
2013,07,14,14,46,13.60
2013,07,14,14,47,13.60
2013,07,14,14,48,13.60
2013,07,14,14,49,13.60
2013,07,14,14,50,13.60
2013,07,14,14,51,13.50
2013,07,14,14,52,13.50
2013,07,14,14,53,13.50
2013,07,14,14,54,13.40
2013,07,14,14,55,13.30
2013,07,14,14,56,13.30
2013,07,14,14,57,13.30
2013,07,14,14,58,13.30
2013,07,14,14,59,13.40
2013,07,14,15,00,13.40
2013,07,14,15,01,13.50
2013,07,14,15,02,13.60
2013,07,14,15,03,13.60
2013,07,14,15,04,13.50
2013,07,14,15,05,13.40
2013,07,14,15,06,13.40
2013,07,14,15,07,13.50
2013,07,14,15,08,13.60
2013,07,14,15,09,13.60
2013,07,14,15,10,13.70
2013,07,14,15,11,13.80
2013,07,14,15,12,13.90
2013,07,14,15,13,14.00
2013,07,14,15,14,14.30
2013,07,14,15,15,14.50
2013,07,14,15,16,14.70
2013,07,14,15,17,15.00
2013,07,14,15,18,15.20
2013,07,14,15,19,15.40
2013,07,14,15,20,15.60
2013,07,14,15,21,15.80
2013,07,14,15,22,16.00
2013,07,14,15,23,16.20
2013,07,14,15,24,16.50
2013,07,14,15,25,16.80
2013,07,14,15,26,17.10
2013,07,14,15,27,17.30
2013,07,14,15,28,17.50
2013,07,14,15,29,17.70
2013,07,14,15,30,17.90
2013,07,14,15,31,18.20
2013,07,14,15,32,18.60
2013,07,14,15,33,18.90
2013,07,14,15,34,19.20
2013,07,14,15,35,19.60
2013,07,14,15,36,19.90
2013,07,14,15,37,20.20
2013,07,14,15,38,20.50
2013,07,14,15,39,20.70
2013,07,14,15,40,21.00
2013,07,14,15,41,21.20
2013,07,14,15,42,21.40
2013,07,14,15,43,21.60
2013,07,14,15,44,22.00
2013,07,14,15,45,22.30
2013,07,14,15,46,22.70
2013,07,14,15,47,23.10
2013,07,14,15,48,23.50
2013,07,14,15,49,23.80
2013,07,14,15,50,24.00
2013,07,14,15,51,24.20
2013,07,14,15,52,24.50
2013,07,14,15,53,24.60
2013,07,14,15,54,24.70
2013,07,14,15,55,24.70
2013,07,14,15,56,24.80
2013,07,14,15,57,24.90
2013,07,14,15,58,25.00
2013,07,14,15,59,25.00
2013,07,14,16,00,25.00
2013,07,14,16,01,25.00
2013,07,14,16,02,25.10
2013,07,14,16,03,25.20
2013,07,14,16,04,25.20
2013,07,14,16,05,25.20
2013,07,14,16,06,25.20
2013,07,14,16,07,25.30
2013,07,14,16,08,25.30
2013,07,14,16,09,25.40
2013,07,14,16,10,25.40
2013,07,14,16,11,25.40
2013,07,14,16,12,25.40
2013,07,14,16,13,25.40
2013,07,14,16,14,25.40
2013,07,14,16,15,25.40
2013,07,14,16,16,25.40
2013,07,14,16,17,25.40
2013,07,14,16,18,25.50
2013,07,14,16,19,25.50
2013,07,14,16,20,25.60
2013,07,14,16,21,25.60
2013,07,14,16,22,25.60
2013,07,14,16,23,25.50
2013,07,14,16,24,25.50
2013,07,14,16,25,25.40
2013,07,14,16,26,25.40
2013,07,14,16,27,25.30
2013,07,14,16,28,25.20
2013,07,14,16,29,25.20
2013,07,14,16,30,25.10
2013,07,14,16,31,25.10
2013,07,14,16,32,25.10
2013,07,14,16,33,25.20
2013,07,14,16,34,25.20
2013,07,14,16,35,25.30
2013,07,14,16,36,25.30
2013,07,14,16,37,25.30
2013,07,14,16,38,25.40
2013,07,14,16,39,25.40
2013,07,14,16,40,25.40
2013,07,14,16,41,25.40
2013,07,14,16,42,25.40
2013,07,14,16,43,25.40
2013,07,14,16,44,25.30
2013,07,14,16,45,25.20
2013,07,14,16,46,25.20
2013,07,14,16,47,25.20
2013,07,14,16,48,25.20
2013,07,14,16,49,25.20
2013,07,14,16,50,25.20
2013,07,14,16,51,25.10
2013,07,14,16,52,25.00
2013,07,14,16,53,25.00
2013,07,14,16,54,25.00
2013,07,14,16,55,24.90
2013,07,14,16,56,24.90
2013,07,14,16,57,24.90
2013,07,14,16,58,24.80
2013,07,14,16,59,24.80
2013,07,14,17,00,24.80
2013,07,14,17,01,24.70
2013,07,14,17,02,24.70
2013,07,14,17,03,24.70
2013,07,14,17,04,24.70
2013,07,14,17,05,24.70
2013,07,14,17,06,24.70
2013,07,14,17,07,24.70
2013,07,14,17,08,24.70
2013,07,14,17,09,24.80
2013,07,14,17,10,24.80
2013,07,14,17,11,24.90
2013,07,14,17,12,24.90
2013,07,14,17,13,24.90
2013,07,14,17,14,24.90
2013,07,14,17,15,24.80
2013,07,14,17,16,24.80
2013,07,14,17,17,24.70
2013,07,14,17,18,24.70
2013,07,14,17,19,24.70